QPF
0.00 0.00 0.00 0.00 0.00 0.00 0.00 0.00 0.00 0.00 0.00 0.00 0.00 0.00 0.00 0.00 0.00 0.00 0.00 0.00 0.00 0.00 0.00 0.01 0.01 0.02 0.03 0.03 0.01 0.01 0.00 0.00 0.00 0.00 0.00 0.00 0.00 0.00 0.00 0.00 0.00 0.00 0.00 0.00 0.00 0.00 0.00 0.00 0.00
0.00 0.00 0.00 0.00 0.00 0.00 0.00 0.00 0.00 0.00 0.00 0.00 0.00 0.00 0.00 0.00 0.00 0.00 0.00 0.00 0.00 0.00 0.00 0.00 0.01 0.02 0.03 0.03 0.01 0.01 0.00 0.00 0.00 0.00 0.00 0.00 0.00 0.00 0.00 0.00 0.00 0.00 0.00 0.00 0.00 0.00 0.00 0.00 0.00
0.00 0.00 0.00 0.00 0.00 0.00 0.00 0.00 0.00 0.00 0.00 0.00 0.00 0.00 0.00 0.00 0.00 0.00 0.00 0.00 0.00 0.00 0.00 0.00 0.01 0.02 0.03 0.02 0.02 0.01 0.01 0.00 0.00 0.00 0.00 0.00 0.00 0.00 0.00 0.00 0.00 0.00 0.00 0.00 0.00 0.00 0.00 0.00 0.00
0.00 0.00 0.00 0.00 0.00 0.00 0.00 0.00 0.00 0.00 0.00 0.00 0.00 0.00 0.00 0.00 0.00 0.00 0.00 0.00 0.00 0.00 0.00 0.00 0.01 0.02 0.02 0.02 0.02 0.02 0.01 0.00 0.00 0.00 0.00 0.00 0.00 0.00 0.00 0.00 0.00 0.00 0.00 0.00 0.00 0.00 0.00 0.00 0.00
0.00 0.00 0.00 0.00 0.00 0.00 0.00 0.00 0.00 0.00 0.00 0.00 0.00 0.00 0.00 0.00 0.00 0.00 0.00 0.00 0.00 0.00 0.00 0.00 0.01 0.02 0.02 0.02 0.02 0.02 0.01 0.00 0.00 0.00 0.00 0.00 0.00 0.00 0.00 0.00 0.00 0.00 0.00 0.00 0.00 0.00 0.00 0.00 0.00
0.00 0.00 0.00 0.00 0.00 0.00 0.00 0.00 0.00 0.00 0.00 0.00 0.00 0.00 0.00 0.00 0.00 0.00 0.00 0.00 0.00 0.00 0.00 0.00 0.02 0.02 0.02 0.01 0.01 0.02 0.01 0.01 0.00 0.00 0.00 0.00 0.00 0.00 0.00 0.00 0.00 0.00 0.00 0.00 0.00 0.00 0.00 0.00 0.00
0.00 0.00 0.00 0.00 0.00 0.00 0.00 0.00 0.00 0.00 0.00 0.00 0.00 0.00 0.00 0.00 0.00 0.00 0.00 0.00 0.00 0.00 0.00 0.00 0.01 0.02 0.01 0.01 0.01 0.01 0.01 0.01 0.00 0.00 0.00 0.00 0.00 0.00 0.00 0.00 0.00 0.00 0.00 0.00 0.00 0.00 0.00 0.00 0.00
0.00 0.00 0.00 0.00 0.00 0.00 0.00 0.00 0.00 0.00 0.00 0.00 0.00 0.00 0.00 0.00 0.00 0.00 0.00 0.00 0.00 0.00 0.00 0.00 0.01 0.01 0.01 0.01 0.01 0.01 0.01 0.01 0.01 0.00 0.00 0.00 0.00 0.00 0.00 0.00 0.00 0.00 0.00 0.00 0.00 0.00 0.00 0.00 0.00
0.00 0.00 0.00 0.00 0.00 0.00 0.00 0.00 0.00 0.00 0.00 0.00 0.00 0.00 0.00 0.00 0.00 0.00 0.00 0.00 0.00 0.00 0.00 0.00 0.00 0.01 0.01 0.01 0.00 0.01 0.01 0.01 0.00 0.00 0.00 0.00 0.00 0.00 0.00 0.00 0.00 0.00 0.00 0.00 0.00 0.00 0.00 0.00 0.00
0.00 0.00 0.00 0.00 0.00 0.00 0.00 0.00 0.00 0.00 0.00 0.00 0.00 0.00 0.00 0.00 0.00 0.00 0.00 0.00 0.00 0.00 0.00 0.00 0.00 0.00 0.00 0.00 0.00 0.01 0.01 0.00 0.00 0.00 0.00 0.00 0.00 0.00 0.00 0.00 0.00 0.00 0.00 0.00 0.00 0.00 0.00 0.00 0.00
0.00 0.00 0.00 0.00 0.00 0.00 0.00 0.00 0.00 0.00 0.00 0.00 0.00 0.00 0.00 0.00 0.00 0.00 0.00 0.00 0.00 0.00 0.00 0.00 0.00 0.00 0.00 0.00 0.00 0.00 0.00 0.00 0.00 0.00 0.00 0.00 0.00 0.00 0.00 0.00 0.00 0.00 0.00 0.00 0.00 0.00 0.00 0.00 0.00
0.00 0.00 0.00 0.00 0.00 0.00 0.00 0.00 0.00 0.00 0.00 0.00 0.00 0.00 0.00 0.00 0.00 0.00 0.00 0.00 0.00 0.00 0.00 0.00 0.00 0.00 0.00 0.00 0.00 0.00 0.00 0.00 0.00 0.00 0.00 0.00 0.00 0.00 0.00 0.00 0.00 0.00 0.00 0.00 0.00 0.00 0.00 0.00 0.00
0.00 0.00 0.00 0.00 0.00 0.00 0.00 0.00 0.00 0.00 0.00 0.00 0.00 0.00 0.00 0.00 0.00 0.00 0.00 0.00 0.00 0.00 0.00 0.00 0.00 0.00 0.00 0.00 0.00 0.00 0.00 0.00 0.00 0.00 0.00 0.00 0.00 0.00 0.00 0.00 0.00 0.00 0.00 0.00 0.00 0.00 0.00 0.00 0.00
0.00 0.00 0.00 0.00 0.00 0.00 0.00 0.00 0.00 0.00 0.00 0.00 0.00 0.00 0.00 0.00 0.00 0.00 0.00 0.00 0.00 0.00 0.00 0.00 0.00 0.00 0.00 0.00 0.00 0.00 0.00 0.00 0.00 0.00 0.00 0.00 0.00 0.00 0.00 0.00 0.00 0.00 0.00 0.00 0.00 0.00 0.00 0.00 0.00
0.00 0.00 0.00 0.00 0.00 0.00 0.00 0.00 0.00 0.00 0.00 0.00 0.00 0.00 0.00 0.00 0.00 0.00 0.00 0.00 0.00 0.00 0.00 0.00 0.00 0.00 0.00 0.00 0.00 0.00 0.00 0.00 0.00 0.00 0.00 0.00 0.00 0.00 0.00 0.00 0.00 0.00 0.00 0.00 0.00 0.00 0.00 0.00 0.00
0.00 0.00 0.00 0.00 0.00 0.00 0.00 0.00 0.00 0.00 0.00 0.00 0.00 0.00 0.00 0.00 0.00 0.00 0.00 0.00 0.00 0.00 0.00 0.00 0.00 0.00 0.00 0.00 0.00 0.00 0.00 0.00 0.00 0.00 0.00 0.00 0.00 0.00 0.00 0.00 0.00 0.00 0.00 0.00 0.00 0.00 0.00 0.00 0.00
0.00 0.00 0.00 0.00 0.00 0.00 0.00 0.00 0.00 0.00 0.00 0.00 0.00 0.00 0.00 0.00 0.00 0.00 0.00 0.00 0.00 0.00 0.00 0.00 0.00 0.00 0.00 0.00 0.00 0.00 0.00 0.00 0.01 0.01 0.01 0.01 0.00 0.00 0.00 0.00 0.00 0.00 0.00 0.00 0.00 0.00 0.00 0.00 0.00
0.00 0.00 0.00 0.00 0.00 0.00 0.00 0.00 0.00 0.00 0.00 0.00 0.00 0.00 0.00 0.00 0.00 0.00 0.00 0.00 0.00 0.00 0.00 0.00 0.00 0.00 0.00 0.00 0.00 0.00 0.00 0.00 0.01 0.01 0.01 0.01 0.01 0.00 0.00 0.00 0.00 0.00 0.00 0.00 0.00 0.00 0.00 0.00 0.00
0.00 0.00 0.00 0.00 0.00 0.00 0.00 0.00 0.00 0.00 0.00 0.00 0.00 0.00 0.00 0.00 0.00 0.00 0.00 0.00 0.00 0.00 0.00 0.00 0.00 0.00 0.00 0.00 0.00 0.00 0.00 0.00 0.00 0.00 0.00 0.01 0.01 0.00 0.00 0.00 0.00 0.00 0.00 0.00 0.00 0.00 0.00 0.00 0.00
0.00 0.00 0.00 0.00 0.00 0.00 0.00 0.00 0.00 0.00 0.00 0.00 0.00 0.00 0.00 0.00 0.00 0.00 0.00 0.00 0.00 0.00 0.00 0.00 0.00 0.00 0.00 0.00 0.00 0.00 0.00 0.00 0.00 0.00 0.00 0.01 0.01 0.01 0.01 0.00 0.00 0.00 0.00 0.00 0.00 0.00 0.00 0.00 0.00
0.01 0.00 0.00 0.00 0.00 0.00 0.00 0.00 0.00 0.00 0.00 0.00 0.00 0.00 0.00 0.00 0.00 0.00 0.00 0.00 0.00 0.00 0.00 0.00 0.00 0.00 0.00 0.00 0.00 0.00 0.00 0.00 0.00 0.00 0.00 0.01 0.01 0.01 0.01 0.01 0.01 0.01 0.01 0.00 0.00 0.00 0.00 0.00 0.00
0.00 0.00 0.00 0.00 0.01 0.01 0.00 0.00 0.00 0.00 0.00 0.00 0.00 0.00 0.00 0.00 0.00 0.00 0.00 0.00 0.00 0.00 0.00 0.00 0.00 0.00 0.00 0.00 0.00 0.00 0.00 0.00 0.00 0.00 0.00 0.00 0.00 0.00 0.00 0.00 0.01 0.01 0.01 0.01 0.01 0.01 0.01 0.01 0.00
0.00 0.00 0.00 0.01 0.01 0.01 0.01 0.01 0.00 0.00 0.00 0.00 0.00 0.00 0.00 0.00 0.00 0.00 0.00 0.00 0.00 0.00 0.00 0.00 0.00 0.00 0.00 0.00 0.00 0.00 0.00 0.00 0.00 0.00 0.00 0.00 0.00 0.00 0.00 0.00 0.00 0.01 0.01 0.01 0.01 0.01 0.01 0.01 0.01
0.01 0.01 0.01 0.02 0.03 0.04 0.01 0.01 0.00 0.00 0.00 0.00 0.00 0.00 0.00 0.00 0.00 0.00 0.00 0.00 0.00 0.00 0.00 0.00 0.00 0.00 0.00 0.00 0.00 0.00 0.00 0.00 0.00 0.00 0.00 0.00 0.00 0.00 0.00 0.00 0.00 0.00 0.00 0.00 0.00 0.01 0.01 0.01 0.01
0.04 0.04 0.06 0.06 0.06 0.03 0.00 0.00 0.00 0.00 0.00 0.00 0.00 0.00 0.00 0.00 0.00 0.00 0.00 0.00 0.00 0.00 0.00 0.00 0.00 0.00 0.00 0.00 0.00 0.00 0.00 0.00 0.00 0.00 0.00 0.00 0.00 0.00 0.00 0.00 0.00 0.00 0.00 0.00 0.00 0.00 0.01 0.01 0.01
0.03 0.04 0.05 0.05 0.02 0.01 0.00 0.00 0.00 0.00 0.00 0.00 0.00 0.00 0.00 0.00 0.00 0.00 0.00 0.00 0.00 0.00 0.00 0.00 0.00 0.00 0.00 0.00 0.00 0.00 0.00 0.00 0.00 0.00 0.00 0.00 0.00 0.00 0.00 0.00 0.00 0.00 0.00 0.01 0.01 0.01 0.01 0.01 0.01
0.04 0.03 0.02 0.03 0.02 0.01 0.01 0.00 0.00 0.00 0.00 0.00 0.00 0.00 0.00 0.00 0.00 0.00 0.00 0.00 0.00 0.00 0.00 0.00 0.00 0.00 0.00 0.00 0.00 0.00 0.00 0.00 0.00 0.00 0.00 0.00 0.00 0.00 0.00 0.00 0.00 0.00 0.00 0.01 0.01 0.01 0.01 0.01 0.01
0.03 0.04 0.04 0.05 0.05 0.02 0.01 0.00 0.00 0.00 0.00 0.00 0.00 0.00 0.00 0.00 0.00 0.00 0.00 0.00 0.00 0.00 0.00 0.00 0.00 0.00 0.00 0.00 0.00 0.00 0.00 0.00 0.00 0.00 0.00 0.00 0.00 0.00 0.00 0.00 0.00 0.00 0.00 0.00 0.00 0.01 0.01 0.01 0.01
0.03 0.05 0.08 0.09 0.06 0.03 0.01 0.00 0.00 0.00 0.00 0.00 0.00 0.00 0.00 0.00 0.00 0.00 0.00 0.00 0.00 0.00 0.00 0.00 0.00 0.00 0.00 0.00 0.00 0.00 0.00 0.00 0.00 0.00 0.00 0.00 0.00 0.00 0.00 0.00 0.00 0.00 0.00 0.00 0.00 0.01 0.01 0.01 0.01
0.02 0.03 0.05 0.07 0.06 0.03 0.02 0.00 0.00 0.00 0.00 0.00 0.00 0.00 0.00 0.00 0.00 0.00 0.00 0.00 0.00 0.00 0.00 0.00 0.00 0.00 0.00 0.00 0.00 0.00 0.00 0.00 0.00 0.00 0.00 0.00 0.00 0.00 0.00 0.00 0.00 0.00 0.00 0.00 0.00 0.00 0.00 0.01 0.01
MSLP
1013.26 1013.63 1014.21 1014.93 1015.72 1016.49 1017.16 1017.67 1018.01 1018.16 1018.17 1018.08 1017.94 1017.79 1017.64 1017.51 1017.41 1017.32 1017.26 1017.24 1017.27 1017.38 1017.57 1017.85 1018.20 1018.58 1018.95 1019.28 1019.53 1019.69 1019.76 1019.77 1019.76 1019.75 1019.77 1019.83 1019.90 1019.98 1020.04 1020.05 1020.01 1019.92 1019.81 1019.69 1019.60 1019.54 1019.52 1019.52 1019.52
1013.41 1013.90 1014.59 1015.38 1016.19 1016.92 1017.50 1017.88 1018.05 1018.03 1017.88 1017.66 1017.43 1017.23 1017.08 1017.00 1016.96 1016.95 1016.98 1017.03 1017.13 1017.29 1017.53 1017.85 1018.23 1018.64 1019.05 1019.42 1019.71 1019.90 1020.01 1020.05 1020.06 1020.06 1020.09 1020.14 1020.21 1020.28 1020.33 1020.34 1020.30 1020.22 1020.11 1020.01 1019.92 1019.87 1019.85 1019.85 1019.84
1013.68 1014.28 1015.04 1015.85 1016.64 1017.29 1017.75 1017.97 1017.97 1017.79 1017.51 1017.19 1016.90 1016.69 1016.57 1016.54 1016.57 1016.65 1016.75 1016.88 1017.03 1017.23 1017.50 1017.85 1018.26 1018.70 1019.15 1019.55 1019.88 1020.12 1020.27 1020.35 1020.38 1020.40 1020.42 1020.47 1020.52 1020.58 1020.61 1020.60 1020.55 1020.47 1020.37 1020.28 1020.20 1020.16 1020.14 1020.13 1020.12
1014.07 1014.74 1015.53 1016.33 1017.05 1017.59 1017.91 1017.98 1017.83 1017.53 1017.14 1016.77 1016.46 1016.27 1016.20 1016.23 1016.33 1016.47 1016.63 1016.80 1016.98 1017.21 1017.49 1017.85 1018.27 1018.74 1019.22 1019.65 1020.03 1020.31 1020.50 1020.62 1020.68 1020.71 1020.74 1020.77 1020.81 1020.84 1020.86 1020.84 1020.78 1020.70 1020.61 1020.52 1020.46 1020.42 1020.40 1020.39 1020.37
1014.54 1015.26 1016.04 1016.79 1017.41 1017.82 1018.00 1017.94 1017.67 1017.28 1016.85 1016.47 1016.19 1016.04 1016.02 1016.11 1016.26 1016.44 1016.63 1016.81 1017.00 1017.22 1017.51 1017.86 1018.28 1018.76 1019.25 1019.71 1020.12 1020.44 1020.67 1020.82 1020.91 1020.96 1021.00 1021.03 1021.06 1021.08 1021.08 1021.05 1021.00 1020.92 1020.84 1020.76 1020.70 1020.66 1020.65 1020.63 1020.60
1015.06 1015.79 1016.53 1017.19 1017.70 1017.98 1018.03 1017.85 1017.52 1017.09 1016.66 1016.32 1016.09 1016.00 1016.04 1016.18 1016.36 1016.56 1016.74 1016.91 1017.08 1017.28 1017.54 1017.87 1018.28 1018.75 1019.24 1019.71 1020.14 1020.48 1020.74 1020.92 1021.04 1021.11 1021.17 1021.22 1021.25 1021.28 1021.28 1021.25 1021.20 1021.13 1021.06 1020.99 1020.94 1020.90 1020.87 1020.85 1020.81
1015.60 1016.29 1016.96 1017.51 1017.89 1018.04 1017.98 1017.73 1017.36 1016.94 1016.56 1016.28 1016.13 1016.11 1016.21 1016.38 1016.58 1016.76 1016.92 1017.06 1017.19 1017.36 1017.58 1017.89 1018.27 1018.71 1019.19 1019.65 1020.07 1020.42 1020.70 1020.90 1021.05 1021.16 1021.24 1021.31 1021.37 1021.41 1021.43 1021.42 1021.39 1021.33 1021.27 1021.21 1021.15 1021.11 1021.07 1021.03 1020.97
1016.10 1016.74 1017.30 1017.73 1017.98 1018.02 1017.87 1017.58 1017.20 1016.82 1016.50 1016.30 1016.23 1016.28 1016.42 1016.61 1016.81 1016.97 1017.10 1017.20 1017.30 1017.43 1017.62 1017.90 1018.25 1018.66 1019.10 1019.54 1019.94 1020.29 1020.56 1020.78 1020.95 1021.09 1021.21 1021.32 1021.41 1021.49 1021.53 1021.55 1021.53 1021.49 1021.44 1021.38 1021.33 1021.27 1021.22 1021.16 1021.08
1016.54 1017.09 1017.55 1017.85 1017.97 1017.91 1017.70 1017.38 1017.02 1016.68 1016.43 1016.30 1016.30 1016.40 1016.57 1016.77 1016.95 1017.10 1017.20 1017.28 1017.36 1017.47 1017.64 1017.89 1018.22 1018.59 1019.00 1019.40 1019.76 1020.08 1020.34 1020.57 1020.75 1020.92 1021.08 1021.23 1021.37 1021.48 1021.56 1021.60 1021.60 1021.58 1021.54 1021.49 1021.43 1021.38 1021.31 1021.24 1021.15
1016.91 1017.36 1017.69 1017.87 1017.88 1017.74 1017.48 1017.14 1016.80 1016.51 1016.31 1016.23 1016.27 1016.39 1016.57 1016.76 1016.93 1017.06 1017.15 1017.23 1017.31 1017.43 1017.61 1017.85 1018.16 1018.51 1018.87 1019.22 1019.54 1019.83 1020.07 1020.29 1020.49 1020.68 1020.88 1021.07 1021.24 1021.39 1021.50 1021.56 1021.59 1021.58 1021.55 1021.51 1021.46 1021.41 1021.35 1021.27 1021.17
1017.19 1017.54 1017.76 1017.83 1017.75 1017.54 1017.24 1016.89 1016.56 1016.29 1016.12 1016.06 1016.10 1016.22 1016.38 1016.55 1016.70 1016.83 1016.93 1017.02 1017.14 1017.29 1017.50 1017.76 1018.07 1018.40 1018.73 1019.03 1019.31 1019.55 1019.77 1019.97 1020.17 1020.39 1020.61 1020.83 1021.04 1021.21 1021.35 1021.43 1021.47 1021.48 1021.46 1021.44 1021.41 1021.38 1021.33 1021.27 1021.18
1017.39 1017.65 1017.77 1017.76 1017.61 1017.35 1017.02 1016.66 1016.33 1016.06 1015.88 1015.80 1015.81 1015.89 1016.01 1016.14 1016.28 1016.40 1016.53 1016.67 1016.84 1017.05 1017.30 1017.60 1017.92 1018.24 1018.55 1018.82 1019.05 1019.26 1019.45 1019.64 1019.85 1020.07 1020.31 1020.55 1020.78 1020.97 1021.12 1021.22 1021.27 1021.30 1021.30 1021.30 1021.30 1021.30 1021.29 1021.26 1021.20
1017.53 1017.71 1017.76 1017.68 1017.49 1017.20 1016.85 1016.49 1016.14 1015.85 1015.63 1015.49 1015.43 1015.44 1015.50 1015.60 1015.71 1015.84 1016.00 1016.19 1016.42 1016.70 1017.01 1017.35 1017.70 1018.03 1018.32 1018.57 1018.78 1018.96 1019.13 1019.31 1019.51 1019.74 1019.99 1020.25 1020.48 1020.69 1020.84 1020.95 1021.02 1021.06 1021.09 1021.13 1021.17 1021.21 1021.25 1021.26 1021.23
1017.63 1017.75 1017.75 1017.64 1017.43 1017.13 1016.78 1016.39 1016.02 1015.68 1015.40 1015.18 1015.04 1014.97 1014.96 1014.99 1015.08 1015.22 1015.40 1015.64 1015.93 1016.27 1016.64 1017.03 1017.40 1017.74 1018.04 1018.28 1018.48 1018.65 1018.81 1018.98 1019.19 1019.42 1019.67 1019.93 1020.17 1020.38 1020.55 1020.67 1020.75 1020.81 1020.87 1020.94 1021.03 1021.12 1021.21 1021.26 1021.28
1017.71 1017.79 1017.77 1017.64 1017.43 1017.14 1016.78 1016.39 1015.98 1015.59 1015.23 1014.93 1014.70 1014.54 1014.45 1014.43 1014.49 1014.62 1014.82 1015.09 1015.42 1015.80 1016.21 1016.63 1017.02 1017.38 1017.68 1017.93 1018.14 1018.31 1018.48 1018.66 1018.87 1019.10 1019.36 1019.62 1019.86 1020.08 1020.25 1020.38 1020.48 1020.58 1020.67 1020.78 1020.90 1021.03 1021.16 1021.26 1021.30
1017.80 1017.85 1017.82 1017.71 1017.51 1017.23 1016.87 1016.46 1016.02 1015.57 1015.14 1014.76 1014.44 1014.20 1014.05 1013.98 1014.01 1014.13 1014.33 1014.60 1014.95 1015.34 1015.76 1016.18 1016.59 1016.96 1017.27 1017.53 1017.76 1017.95 1018.13 1018.32 1018.54 1018.78 1019.03 1019.29 1019.54 1019.77 1019.95 1020.11 1020.24 1020.36 1020.48 1020.62 1020.78 1020.94 1021.09 1021.20 1021.27
1017.91 1017.95 1017.93 1017.83 1017.64 1017.37 1017.01 1016.58 1016.10 1015.60 1015.10 1014.65 1014.27 1013.97 1013.77 1013.67 1013.67 1013.77 1013.95 1014.21 1014.53 1014.91 1015.31 1015.72 1016.12 1016.49 1016.82 1017.10 1017.34 1017.55 1017.76 1017.96 1018.18 1018.42 1018.68 1018.94 1019.20 1019.43 1019.64 1019.83 1019.99 1020.14 1020.30 1020.46 1020.63 1020.80 1020.95 1021.07 1021.13
1018.04 1018.09 1018.08 1017.99 1017.82 1017.54 1017.17 1016.71 1016.19 1015.64 1015.09 1014.59 1014.16 1013.83 1013.61 1013.49 1013.47 1013.55 1013.71 1013.93 1014.21 1014.54 1014.90 1015.27 1015.64 1016.00 1016.33 1016.63 1016.90 1017.13 1017.35 1017.57 1017.79 1018.02 1018.28 1018.54 1018.80 1019.05 1019.29 1019.51 1019.71 1019.90 1020.08 1020.26 1020.43 1020.59 1020.73 1020.82 1020.87
1018.20 1018.26 1018.26 1018.18 1018.00 1017.72 1017.32 1016.82 1016.25 1015.65 1015.06 1014.53 1014.09 1013.75 1013.53 1013.41 1013.39 1013.45 1013.58 1013.76 1013.98 1014.24 1014.53 1014.85 1015.19 1015.53 1015.85 1016.16 1016.43 1016.68 1016.91 1017.12 1017.34 1017.56 1017.80 1018.05 1018.32 1018.59 1018.86 1019.12 1019.36 1019.59 1019.80 1019.99 1020.15 1020.29 1020.40 1020.46 1020.48
1018.37 1018.44 1018.45 1018.37 1018.18 1017.86 1017.42 1016.87 1016.25 1015.60 1014.98 1014.44 1014.00 1013.68 1013.48 1013.38 1013.38 1013.43 1013.53 1013.66 1013.82 1014.01 1014.23 1014.49 1014.77 1015.08 1015.39 1015.69 1015.97 1016.22 1016.43 1016.63 1016.82 1017.01 1017.23 1017.46 1017.73 1018.02 1018.32 1018.62 1018.91 1019.18 1019.41 1019.61 1019.78 1019.89 1019.97 1020.00 1019.99
1018.49 1018.60 1018.62 1018.54 1018.32 1017.97 1017.47 1016.85 1016.17 1015.48 1014.84 1014.29 1013.86 1013.58 1013.42 1013.36 1013.38 1013.44 1013.52 1013.61 1013.71 1013.83 1013.98 1014.17 1014.40 1014.67 1014.95 1015.24 1015.50 1015.73 1015.93 1016.09 1016.24 1016.39 1016.57 1016.78 1017.04 1017.34 1017.67 1018.01 1018.34 1018.65 1018.91 1019.13 1019.29 1019.40 1019.45 1019.46 1019.44
1018.56 1018.69 1018.73 1018.65 1018.41 1018.00 1017.44 1016.77 1016.03 1015.29 1014.62 1014.08 1013.68 1013.43 1013.32 1013.31 1013.36 1013.44 1013.51 1013.57 1013.62 1013.67 1013.76 1013.88 1014.06 1014.29 1014.54 1014.80 1015.03 1015.24 1015.40 1015.52 1015.62 1015.72 1015.85 1016.03 1016.27 1016.57 1016.92 1017.29 1017.66 1018.01 1018.30 1018.54 1018.71 1018.82 1018.88 1018.89 1018.87
1018.53 1018.69 1018.75 1018.67 1018.41 1017.97 1017.35 1016.61 1015.82 1015.04 1014.36 1013.81 1013.44 1013.23 1013.17 1013.20 1013.29 1013.39 1013.46 1013.49 1013.50 1013.51 1013.54 1013.61 1013.74 1013.92 1014.14 1014.36 1014.57 1014.73 1014.85 1014.92 1014.97 1015.02 1015.11 1015.25 1015.47 1015.76 1016.12 1016.51 1016.91 1017.28 1017.60 1017.86 1018.06 1018.19 1018.27 1018.31 1018.33
1018.38 1018.58 1018.67 1018.60 1018.32 1017.85 1017.19 1016.40 1015.56 1014.76 1014.05 1013.51 1013.16 1012.99 1012.96 1013.04 1013.16 1013.27 1013.34 1013.37 1013.35 1013.32 1013.30 1013.33 1013.41 1013.55 1013.73 1013.92 1014.09 1014.22 1014.30 1014.33 1014.33 1014.34 1014.38 1014.49 1014.68 1014.96 1015.31 1015.71 1016.11 1016.50 1016.85 1017.13 1017.35 1017.51 1017.63 1017.72 1017.79
1018.12 1018.36 1018.48 1018.41 1018.14 1017.64 1016.96 1016.14 1015.27 1014.45 1013.74 1013.21 1012.87 1012.72 1012.72 1012.82 1012.97 1013.09 1013.16 1013.17 1013.14 1013.08 1013.02 1013.02 1013.06 1013.17 1013.31 1013.46 1013.60 1013.70 1013.75 1013.75 1013.72 1013.70 1013.71 1013.80 1013.96 1014.22 1014.55 1014.93 1015.33 1015.72 1016.06 1016.35 1016.59 1016.79 1016.95 1017.10 1017.24
1017.77 1018.04 1018.18 1018.13 1017.85 1017.35 1016.65 1015.82 1014.95 1014.12 1013.42 1012.89 1012.57 1012.43 1012.45 1012.57 1012.71 1012.84 1012.90 1012.91 1012.85 1012.77 1012.70 1012.66 1012.67 1012.75 1012.86 1012.99 1013.11 1013.19 1013.22 1013.21 1013.17 1013.13 1013.13 1013.20 1013.34 1013.57 1013.87 1014.22 1014.59 1014.95 1015.28 1015.56 1015.81 1016.02 1016.22 1016.42 1016.63
1017.36 1017.65 1017.79 1017.74 1017.46 1016.96 1016.27 1015.45 1014.59 1013.77 1013.08 1012.57 1012.26 1012.13 1012.15 1012.26 1012.40 1012.52 1012.58 1012.57 1012.50 1012.41 1012.32 1012.26 1012.25 1012.30 1012.39 1012.51 1012.61 1012.69 1012.72 1012.71 1012.68 1012.65 1012.65 1012.70 1012.83 1013.03 1013.30 1013.60 1013.92 1014.23 1014.52 1014.77 1015.00 1015.21 1015.43 1015.66 1015.91
1016.93 1017.20 1017.33 1017.27 1016.98 1016.48 1015.80 1015.00 1014.16 1013.38 1012.72 1012.23 1011.93 1011.80 1011.82 1011.91 1012.04 1012.14 1012.18 1012.16 1012.08 1011.98 1011.88 1011.81 1011.79 1011.83 1011.91 1012.02 1012.12 1012.20 1012.24 1012.25 1012.24 1012.23 1012.24 1012.30 1012.42 1012.59 1012.82 1013.06 1013.32 1013.57 1013.79 1013.99 1014.17 1014.36 1014.57 1014.80 1015.08
1016.48 1016.72 1016.80 1016.70 1016.40 1015.89 1015.22 1014.45 1013.66 1012.92 1012.29 1011.83 1011.55 1011.42 1011.43 1011.50 1011.60 1011.68 1011.71 1011.68 1011.60 1011.50 1011.40 1011.34 1011.32 1011.35 1011.43 1011.53 1011.64 1011.73 1011.80 1011.83 1011.85 1011.87 1011.90 1011.97 1012.08 1012.23 1012.40 1012.59 1012.78 1012.95 1013.10 1013.23 1013.35 1013.49 1013.66 1013.87 1014.13
1016.01 1016.18 1016.20 1016.04 1015.69 1015.17 1014.52 1013.78 1013.04 1012.36 1011.79 1011.37 1011.10 1010.98 1010.97 1011.02 1011.10 1011.15 1011.17 1011.13 1011.06 1010.97 1010.89 1010.83 1010.83 1010.87 1010.96 1011.07 1011.18 1011.29 1011.37 1011.44 1011.48 1011.53 1011.58 1011.66 1011.76 1011.88 1012.02 1012.16 1012.28 1012.37 1012.45 1012.50 1012.56 1012.63 1012.74 1012.91 1013.13
Thickness
5758 5761 5763 5760 5750 5740 5735 5740 5746 5744 5746 5752 5752 5749 5748 5747 5742 5737 5745 5750 5747 5742 5736 5730 5726 5723 5720 5718 5715 5713 5711 5709 5708 5706 5705 5703 5702 5700 5699 5698 5696 5695 5694 5693 5692 5691 5690 5689 5689
5760 5762 5760 5755 5741 5731 5734 5744 5743 5747 5750 5750 5749 5749 5748 5749 5751 5748 5745 5746 5744 5740 5735 5730 5724 5721 5718 5715 5713 5710 5708 5706 5704 5702 5700 5699 5697 5696 5694 5693 5691 5690 5688 5687 5686 5685 5684 5683 5682
5760 5761 5754 5747 5738 5737 5738 5746 5748 5749 5750 5749 5748 5750 5750 5750 5751 5750 5749 5745 5742 5737 5733 5728 5722 5719 5716 5713 5710 5708 5705 5703 5701 5699 5697 5695 5693 5691 5689 5687 5685 5684 5682 5681 5680 5679 5677 5676 5675
5759 5755 5751 5742 5735 5741 5746 5750 5750 5746 5745 5748 5749 5747 5750 5752 5753 5752 5748 5744 5741 5736 5732 5726 5720 5717 5713 5710 5708 5705 5702 5699 5697 5695 5693 5690 5688 5686 5684 5682 5680 5678 5677 5675 5674 5672 5671 5670 5669
5756 5749 5738 5733 5736 5744 5749 5750 5749 5747 5746 5748 5748 5747 5748 5750 5751 5750 5745 5743 5739 5735 5730 5725 5718 5714 5711 5708 5705 5702 5699 5696 5693 5691 5688 5686 5684 5681 5679 5676 5674 5673 5671 5669 5668 5666 5665 5664 5662
5746 5743 5732 5730 5736 5742 5748 5749 5748 5748 5749 5748 5746 5746 5749 5749 5748 5746 5744 5740 5738 5733 5728 5723 5715 5712 5709 5705 5702 5699 5696 5693 5690 5687 5685 5682 5679 5677 5674 5672 5670 5668 5666 5664 5662 5661 5659 5658 5656
5739 5734 5730 5732 5734 5738 5745 5749 5748 5748 5747 5749 5751 5746 5750 5748 5747 5744 5742 5739 5735 5731 5726 5722 5716 5711 5706 5703 5700 5696 5693 5690 5687 5684 5681 5678 5675 5672 5670 5668 5665 5663 5661 5659 5657 5655 5653 5652 5650
5741 5734 5727 5730 5731 5736 5745 5746 5749 5748 5749 5753 5751 5746 5748 5749 5744 5741 5738 5735 5732 5728 5725 5721 5717 5712 5707 5702 5698 5694 5690 5687 5683 5680 5677 5673 5670 5668 5665 5663 5660 5658 5656 5653 5651 5649 5648 5646 5644
5735 5726 5724 5729 5730 5737 5742 5742 5745 5748 5748 5747 5749 5751 5746 5745 5740 5735 5731 5728 5726 5724 5723 5720 5716 5712 5707 5703 5697 5692 5687 5684 5680 5677 5673 5670 5669 5666 5662 5659 5655 5653 5651 5648 5646 5644 5642 5640 5639
5727 5720 5728 5735 5737 5738 5739 5740 5742 5741 5741 5743 5744 5744 5741 5738 5736 5733 5731 5728 5725 5723 5722 5719 5715 5711 5706 5701 5696 5692 5687 5683 5680 5677 5672 5669 5666 5663 5659 5654 5651 5648 5646 5643 5641 5639 5637 5636 5636
5723 5722 5729 5732 5735 5735 5734 5736 5741 5738 5738 5746 5747 5747 5740 5736 5735 5735 5735 5733 5730 5726 5721 5718 5714 5709 5705 5700 5696 5692 5687 5683 5679 5676 5671 5667 5663 5659 5655 5652 5648 5645 5642 5641 5637 5636 5634 5633 5630
5717 5721 5725 5728 5728 5728 5731 5734 5736 5737 5744 5752 5752 5750 5741 5737 5737 5737 5737 5735 5731 5725 5721 5717 5713 5708 5704 5699 5695 5691 5686 5682 5678 5673 5669 5665 5661 5657 5653 5650 5646 5643 5640 5637 5634 5632 5630 5627 5625
5711 5715 5719 5722 5722 5725 5726 5729 5732 5739 5747 5748 5746 5742 5741 5741 5741 5740 5739 5736 5730 5725 5721 5717 5712 5707 5702 5698 5693 5689 5685 5680 5676 5670 5666 5662 5658 5655 5650 5647 5642 5639 5636 5633 5630 5628 5625 5623 5621
5708 5710 5713 5715 5717 5719 5719 5726 5726 5738 5744 5742 5740 5741 5742 5742 5741 5740 5736 5733 5730 5726 5722 5717 5711 5706 5701 5696 5692 5688 5684 5678 5674 5668 5664 5659 5655 5651 5647 5643 5639 5636 5632 5629 5625 5623 5620 5618 5615
5700 5699 5704 5709 5712 5714 5713 5717 5728 5740 5738 5738 5741 5742 5741 5741 5740 5739 5738 5735 5732 5728 5723 5717 5711 5705 5700 5695 5691 5686 5682 5677 5672 5667 5662 5657 5652 5648 5644 5640 5636 5632 5628 5624 5621 5618 5615 5612 5610
5690 5690 5692 5705 5705 5707 5703 5715 5734 5737 5733 5735 5740 5743 5741 5741 5740 5741 5739 5736 5733 5728 5722 5717 5710 5704 5700 5694 5689 5685 5680 5675 5670 5665 5660 5655 5650 5645 5640 5637 5633 5628 5624 5620 5616 5613 5611 5608 5605
5679 5683 5689 5697 5701 5701 5701 5712 5729 5732 5729 5732 5738 5741 5742 5741 5740 5740 5739 5735 5732 5728 5723 5716 5710 5704 5699 5693 5688 5683 5678 5673 5668 5663 5658 5653 5647 5642 5637 5633 5629 5624 5619 5616 5612 5609 5606 5604 5600
5675 5679 5682 5688 5695 5692 5696 5709 5723 5728 5726 5731 5736 5739 5740 5739 5741 5740 5738 5734 5730 5726 5722 5716 5709 5704 5698 5691 5685 5680 5675 5671 5666 5661 5656 5651 5645 5640 5635 5630 5626 5621 5616 5612 5608 5605 5600 5598 5594
5672 5672 5676 5683 5686 5683 5693 5704 5717 5724 5724 5728 5733 5736 5737 5739 5740 5738 5735 5732 5728 5723 5719 5715 5709 5703 5696 5690 5683 5678 5673 5669 5664 5659 5655 5649 5644 5638 5633 5628 5623 5618 5614 5610 5605 5601 5596 5592 5588
5659 5661 5668 5675 5675 5675 5686 5698 5715 5720 5722 5726 5729 5733 5735 5735 5736 5734 5731 5729 5725 5722 5717 5713 5708 5702 5696 5690 5684 5679 5673 5667 5663 5657 5652 5647 5642 5637 5631 5626 5621 5616 5611 5606 5601 5596 5592 5588 5582
5650 5656 5663 5663 5666 5667 5670 5694 5710 5717 5718 5721 5724 5727 5731 5731 5732 5731 5728 5725 5722 5719 5716 5711 5707 5701 5695 5689 5681 5674 5668 5662 5658 5654 5650 5645 5640 5635 5630 5624 5619 5614 5608 5604 5598 5593 5587 5584 5579
5644 5654 5653 5652 5652 5661 5660 5672 5706 5711 5713 5718 5724 5726 5728 5728 5727 5726 5724 5722 5719 5717 5713 5708 5704 5699 5693 5686 5680 5674 5669 5664 5661 5656 5650 5644 5639 5633 5628 5622 5617 5611 5606 5601 5595 5589 5584 5579 5575
5644 5645 5643 5643 5644 5648 5654 5655 5694 5703 5706 5718 5723 5725 5725 5724 5723 5722 5720 5718 5716 5712 5708 5704 5700 5695 5690 5684 5679 5673 5669 5665 5660 5654 5648 5643 5637 5631 5626 5620 5614 5609 5603 5598 5592 5586 5581 5575 5571
5630 5630 5628 5630 5632 5634 5654 5652 5679 5703 5709 5716 5718 5719 5719 5718 5717 5716 5715 5712 5709 5706 5702 5699 5695 5691 5687 5681 5677 5672 5667 5663 5657 5651 5646 5640 5635 5629 5623 5617 5611 5606 5600 5595 5589 5583 5577 5572 5567
5623 5623 5618 5619 5622 5638 5649 5647 5675 5704 5707 5707 5710 5712 5714 5713 5712 5711 5709 5707 5705 5701 5698 5695 5691 5688 5683 5678 5674 5670 5665 5661 5656 5650 5645 5639 5633 5627 5621 5614 5609 5603 5597 5591 5585 5579 5573 5568 5562
5620 5623 5621 5621 5630 5642 5636 5645 5682 5699 5700 5700 5700 5702 5704 5706 5707 5705 5705 5703 5700 5697 5694 5692 5689 5685 5680 5675 5671 5667 5662 5657 5653 5648 5643 5638 5633 5627 5620 5613 5606 5600 5594 5587 5580 5574 5569 5562 5557
5612 5616 5627 5622 5621 5627 5642 5655 5676 5690 5692 5693 5695 5695 5698 5701 5700 5700 5699 5698 5696 5693 5690 5688 5685 5682 5677 5673 5668 5663 5658 5654 5650 5644 5639 5634 5629 5623 5616 5610 5603 5596 5590 5583 5576 5570 5564 5557 5552
5613 5615 5606 5606 5607 5617 5639 5650 5668 5685 5690 5692 5693 5694 5696 5695 5695 5694 5694 5692 5691 5689 5686 5683 5681 5678 5674 5669 5664 5659 5654 5650 5645 5639 5634 5630 5624 5618 5612 5606 5599 5592 5585 5578 5571 5566 5559 5553 5547
5596 5598 5604 5608 5615 5621 5630 5653 5678 5683 5687 5687 5690 5691 5691 5691 5691 5689 5688 5686 5684 5682 5679 5677 5675 5672 5668 5664 5659 5654 5649 5644 5639 5634 5630 5624 5618 5612 5606 5600 5594 5588 5581 5574 5567 5561 5554 5547 5541
5600 5603 5602 5600 5605 5614 5627 5649 5674 5674 5675 5675 5679 5680 5682 5683 5683 5683 5681 5679 5677 5675 5673 5671 5669 5667 5663 5659 5654 5649 5644 5639 5634 5629 5624 5618 5613 5607 5600 5594 5588 5582 5575 5568 5562 5555 5548 5541 5535